[[{"header":{"parameterUnit":"m.s-1","parameterCategory":1,"la1":30.2991,"la2":30.254,"lo1":-89.0895,"lo2":-89.0444,"dy":0.0017,"dx":0.0017,"nx":28,"ny":28,"refTime":"2024-07-05T21:00:00:Z","depth":0,"parameterNumber":2,"parameterNumberName":"U-component_of_WINDS"},"data":[0,0,0,0,0,0,0,0,0,0,0,0,0,0,0,0,0,0,0,0,0,0,0,0,0,0,0,0,0,0,0,0,0,0,0,0,0,0,0,0,0,0,0,0,0,0,0,0,0,0,0,0,0,0,0,0,0,0,2.2295,2.2295,0,2.2307,2.2307,2.2307,2.2228,2.2226,2.2224,2.2221,2.2233,2.2235,2.2237,0,0,0,0,0,0,0,0,0,0,0,0,0,2.2203,2.2205,2.2295,2.2295,2.2295,2.2307,2.2307,2.2307,2.2228,2.2226,2.2223,2.222,2.2232,2.2235,2.2238,0,0,0,0,0,0,0,0,0,0,0,0,0,2.2232,2.2206,2.2295,2.2257,2.2254,2.2307,2.2307,2.2307,2.2229,2.2226,2.2222,2.2219,2.2231,2.2234,2.2238,2.2327,0,0,2.2249,2.225,0,0,0,0,0,0,0,0,2.223,2.2235,2.2263,2.226,2.2257,2.2262,2.2278,2.2314,2.223,2.2239,2.2221,2.2218,2.2245,2.2247,2.2257,2.2327,2.2328,2.2249,2.2251,2.2253,2.2254,0,0,0,0,0,0,0,2.2228,2.2234,2.2299,2.2263,2.2259,2.224,2.224,2.2285,2.226,2.2237,2.2232,2.2234,2.2243,2.2254,2.2257,2.2328,2.2249,2.2252,2.2254,2.2256,2.247,2.2473,0,0,0,0,0,0,2.2231,2.2233,2.2299,2.23,2.2235,2.2244,2.2244,2.2264,2.226,2.2256,2.2237,2.2231,2.2249,2.2253,2.2257,2.2358,2.2253,2.2256,2.2258,2.2466,2.247,2.2474,0,0,0,0,0,0,2.223,2.2238,2.2299,2.2265,2.2271,2.2249,2.2272,2.2266,2.2276,2.2259,2.2255,2.2253,2.2247,2.2252,2.2309,2.2357,2.2258,2.2261,2.2462,2.2467,2.2472,2.2563,0,0,0,0,0,0,2.2228,2.2238,2.2272,2.2266,2.2273,2.2352,2.2275,2.2269,2.2283,2.2275,2.2273,2.2269,2.2245,2.2305,2.2313,2.2361,2.2264,2.2457,2.2464,2.2471,2.2556,2.2571,2.2584,0,0,0,0,0,2.2225,2.2297,2.2274,2.2282,2.2315,2.2355,2.2359,2.2329,2.2287,2.232,2.2309,2.2269,2.2352,2.2311,2.232,2.2369,2.2454,2.2462,2.247,2.2549,2.2568,2.2584,0,0,0,0,0,0,2.2308,2.2296,2.227,2.2343,2.2351,2.2341,2.2382,2.235,2.2369,2.236,2.2323,2.2323,2.2387,2.2384,2.2339,2.2454,2.2395,2.2406,2.2453,2.247,2.2484,2.2482,2.2267,0,0,0,0,0,2.2336,2.2369,2.2356,2.2422,2.2427,2.2405,2.2421,2.2397,2.2403,2.2406,2.2399,2.2407,2.2434,2.2452,2.2477,2.2556,2.2553,2.2595,2.2609,2.262,2.2629,2.2668,2.2686,2.25,2.25,2.25,0,0,2.2391,2.2389,2.2412,2.2439,2.2442,2.2477,2.2408,2.2448,2.2473,2.2412,2.2465,2.2461,2.2467,2.2535,2.2565,2.2535,2.268,2.2631,2.264,2.2642,2.2678,2.2696,2.2711,2.2506,2.2505,2.2504,0,0,2.251,2.2513,2.2567,2.2572,2.2577,2.2562,2.2575,2.2571,2.2566,2.2619,2.2574,2.2603,2.2652,2.2657,2.2666,2.2788,2.2751,2.2797,2.287,2.2909,2.2923,2.2936,2.2977,2.2993,2.2806,2.2806,2.2807,0,2.2579,2.263,2.2599,2.2641,2.2654,2.2601,2.2655,2.2661,2.2675,2.2684,2.2651,2.271,2.271,2.2778,2.2807,2.2818,2.283,2.2796,2.2924,2.2937,2.2948,2.2986,2.3002,2.2812,2.2811,2.2811,2.281,0,2.2713,2.2749,2.2792,2.2806,2.2823,2.2872,2.2847,2.2869,2.2844,2.2832,2.2887,2.2885,2.2908,2.2923,2.29,2.2987,2.2968,2.2931,2.287,2.2971,2.3007,2.3022,2.2819,2.2817,2.2816,2.2815,0,0,2.2882,2.2879,2.2895,2.29,2.2903,2.293,2.2976,2.2998,2.3016,2.3028,2.3064,2.3107,2.3071,2.3082,2.3059,2.3094,2.3188,2.3051,2.3051,2.3074,2.3281,2.3307,2.3325,2.3164,2.3167,2.3169,2.328,0,2.2996,2.3073,2.3047,2.3125,2.3157,2.3109,2.3148,2.3154,2.3145,2.317,2.3159,2.3189,2.3142,2.3147,2.318,2.3169,2.3228,2.3161,2.3196,2.3197,2.3192,2.3344,2.3372,2.3476,2.3294,2.3296,2.3298,0,2.3138,2.3155,2.3237,2.3234,2.3246,2.3282,2.3299,2.3325,2.3331,2.3321,2.3334,2.3303,2.3347,2.329,2.3348,2.3303,2.3316,2.3314,2.3317,2.3316,2.3251,2.3345,2.3509,2.3523,2.332,2.3318,2.3317,0,2.325,2.3294,2.3348,2.3354,2.3353,2.3379,2.3379,2.3381,2.3396,2.3412,2.3421,2.3442,2.3453,2.347,2.3445,2.3406,2.3507,2.3448,2.3498,2.3499,2.3519,2.3517,2.3684,2.3533,2.3533,2.3533,2.3533,0,2.3378,2.3429,2.3398,2.343,2.3486,2.3456,2.3512,2.3507,2.351,2.354,2.3501,2.353,2.3498,2.3524,2.3506,2.3556,2.3562,2.3554,2.3548,2.3556,2.3557,2.3561,2.3552,2.3537,2.3536,2.3535,2.3535,0,2.351,2.3492,2.3547,2.3541,2.3541,2.3582,2.3576,2.3606,2.3595,2.3634,2.3641,2.3623,2.3651,2.363,2.3659,2.3646,2.3712,2.3697,2.3709,2.3704,2.3755,2.3749,2.3928,2.3949,2.3788,2.3789,2.3791,0,2.3591,2.3629,2.3628,2.3645,2.3648,2.3678,2.3692,2.3665,2.3681,2.3691,2.3719,2.3745,2.3763,2.3812,2.3801,2.3822,2.3806,2.3867,2.3808,2.3815,2.3803,2.3799,2.3802,2.3878,2.388,2.3881,2.3883,0,2.3736,2.3725,2.3748,2.3768,2.3787,2.3801,2.3812,2.3829,2.3801,2.3822,2.3851,2.3866,2.3895,2.392,2.3938,2.3938,2.3905,2.3902,2.3914,2.392,2.3925,2.392,2.3738,2.3897,2.3895,2.3894,2.3894,2.3893,2.3842,2.3873,2.3877,2.3903,2.3909,2.3921,2.3948,2.394,2.3964,2.3985,2.3968,2.4002,2.4007,2.4027,2.4031,2.4057,2.4031,2.405,2.4054,2.4058,2.4064,2.3924,2.4061,2.406,2.406,2.4059,2.4059,0,2.3982,2.3982,2.4007,2.4024,2.4045,2.4014,2.4025,2.4044,2.4075,2.4082,2.4102,2.4135,2.4159,2.4151,2.4172,2.4194,2.418,2.4201,2.4197,2.4197,2.4087,2.4073,2.4212,2.4212,2.4212,2.4212,2.4212,2.4212,2.4056,2.4106,2.4096,2.4148,2.4148,2.4181,2.419,2.42,2.4205,2.4244,2.4264,2.4259,2.4259,2.4281,2.4302,2.4298,2.4307,2.4332,2.4324,2.422,2.4205,2.419,2.4177,2.4335,2.4336,2.4431,2.4432,2.4432]},{"header":{"parameterUnit":"m.s-1","parameterCategory":1,"la1":30.2991,"la2":30.254,"lo1":-89.0895,"lo2":-89.0444,"dy":0.0017,"dx":0.0017,"nx":28,"ny":28,"refTime":"2024-07-05T21:00:00:Z","depth":0,"parameterNumber":3,"parameterNumberName":"V-component_of_WINDS"},"data":[0,0,0,0,0,0,0,0,0,0,0,0,0,0,0,0,0,0,0,0,0,0,0,0,0,0,0,0,0,0,0,0,0,0,0,0,0,0,0,0,0,0,0,0,0,0,0,0,0,0,0,0,0,0,0,0,0,0,2.4687,2.4687,0,2.468,2.468,2.468,2.462,2.4619,2.4617,2.4616,2.461,2.4612,2.4613,0,0,0,0,0,0,0,0,0,0,0,0,0,2.4648,2.4649,2.4687,2.4687,2.4687,2.468,2.468,2.468,2.462,2.4618,2.4617,2.4615,2.461,2.4612,2.4613,0,0,0,0,0,0,0,0,0,0,0,0,0,2.4656,2.465,2.4687,2.4656,2.4653,2.468,2.468,2.468,2.4621,2.4618,2.4616,2.4614,2.461,2.4611,2.4613,2.467,0,0,2.4619,2.462,0,0,0,0,0,0,0,0,2.4655,2.4657,2.4661,2.4658,2.4655,2.4649,2.4665,2.4677,2.4621,2.4633,2.4616,2.4613,2.4625,2.4626,2.4629,2.467,2.4669,2.4619,2.462,2.4621,2.4622,0,0,0,0,0,0,0,2.4655,2.4657,2.4684,2.4661,2.4657,2.4643,2.4641,2.4667,2.4642,2.4632,2.4627,2.4627,2.4623,2.4628,2.4629,2.4669,2.4619,2.4621,2.4622,2.4623,2.4755,2.4757,0,0,0,0,0,0,2.4659,2.4657,2.4685,2.4684,2.465,2.4645,2.4644,2.4653,2.4641,2.4637,2.4629,2.4625,2.4625,2.4627,2.4628,2.4693,2.4621,2.4623,2.4624,2.4752,2.4755,2.4758,0,0,0,0,0,0,2.4658,2.4662,2.4685,2.4669,2.4671,2.4648,2.4659,2.4654,2.4658,2.4639,2.4635,2.4639,2.4624,2.4626,2.466,2.4692,2.4624,2.4625,2.475,2.4753,2.4757,2.4824,0,0,0,0,0,0,2.4657,2.4662,2.4683,2.467,2.4672,2.4716,2.4661,2.4656,2.4662,2.4655,2.4647,2.4643,2.4622,2.4657,2.4662,2.4693,2.4627,2.4747,2.4751,2.4755,2.4819,2.4829,2.4838,0,0,0,0,0,2.4656,2.4703,2.4684,2.4688,2.4698,2.4718,2.4719,2.4694,2.4665,2.4686,2.4673,2.4643,2.4688,2.4661,2.4666,2.4699,2.4744,2.475,2.4755,2.4814,2.4827,2.4838,0,0,0,0,0,0,2.4721,2.4701,2.468,2.4724,2.4723,2.4708,2.4734,2.4709,2.4716,2.471,2.4679,2.4677,2.4716,2.4711,2.4681,2.4752,2.4711,2.4717,2.4754,2.4766,2.4776,2.4777,2.4629,0,0,0,0,0,2.474,2.4758,2.4739,2.478,2.4781,2.4758,2.4765,2.4745,2.4744,2.4743,2.4733,2.4733,2.4746,2.4756,2.4768,2.4817,2.4814,2.4842,2.4852,2.486,2.4866,2.4891,2.4903,2.4775,2.4775,2.4775,0,0,2.4781,2.4772,2.4785,2.4793,2.479,2.4809,2.4758,2.478,2.4794,2.4747,2.4778,2.477,2.4768,2.481,2.4828,2.4806,2.4901,2.4867,2.4874,2.4875,2.4898,2.491,2.4921,2.4779,2.4778,2.4778,0,0,2.4864,2.4859,2.4892,2.489,2.4885,2.4869,2.4877,2.4866,2.4859,2.4889,2.4854,2.487,2.4894,2.4894,2.4896,2.4978,2.4951,2.4983,2.5034,2.5059,2.5069,2.5078,2.5107,2.5117,2.4989,2.4989,2.4989,0,2.4915,2.4942,2.4912,2.4937,2.4941,2.4898,2.4931,2.493,2.493,2.4934,2.491,2.4939,2.4935,2.4975,2.4995,2.4999,2.5007,2.4984,2.507,2.5079,2.5086,2.5113,2.5124,2.4993,2.4992,2.4992,2.4992,0,2.5004,2.5023,2.505,2.505,2.5057,2.5086,2.5061,2.5072,2.5051,2.5038,2.5069,2.5062,2.5071,2.5079,2.506,2.5117,2.5104,2.5076,2.5033,2.5103,2.5128,2.5138,2.4998,2.4997,2.4996,2.4995,0,0,2.5129,2.5111,2.5122,2.5121,2.5112,2.5126,2.5153,2.5161,2.517,2.5172,2.5193,2.5214,2.5187,2.5191,2.517,2.5192,2.5256,2.5161,2.516,2.5179,2.5318,2.534,2.5352,2.5238,2.524,2.5241,2.5318,0,2.5209,2.5252,2.5226,2.5273,2.529,2.5249,2.5272,2.5269,2.5257,2.527,2.5257,2.5272,2.5236,2.5238,2.5257,2.5245,2.5284,2.5239,2.5258,2.5259,2.5259,2.5365,2.5388,2.5461,2.5328,2.533,2.5331,0,2.5308,2.5312,2.5361,2.5347,2.5354,2.5375,2.5379,2.5392,2.5388,2.5377,2.538,2.5355,2.5379,2.5338,2.5371,2.5341,2.5347,2.5342,2.5344,2.5345,2.5299,2.5368,2.5483,2.5494,2.5346,2.5345,2.5344,0,2.5393,2.5411,2.5442,2.5443,2.5428,2.5444,2.5439,2.5432,2.5438,2.5442,2.5446,2.5453,2.5457,2.5464,2.5441,2.5412,2.5477,2.5434,2.547,2.547,2.5485,2.5485,2.5603,2.549,2.549,2.5489,2.5489,0,2.5485,2.5516,2.548,2.55,2.5533,2.5503,2.5537,2.5528,2.5522,2.5539,2.5504,2.5521,2.5489,2.5502,2.5484,2.5515,2.5517,2.5509,2.5504,2.5513,2.5514,2.5516,2.5511,2.5492,2.5492,2.5491,2.5491,0,2.5586,2.5563,2.5594,2.5578,2.5574,2.56,2.5586,2.5603,2.5588,2.561,2.5613,2.559,2.5604,2.5581,2.5593,2.5581,2.5623,2.561,2.5624,2.562,2.5657,2.5654,2.5781,2.5796,2.5674,2.5675,2.5676,0,2.5646,2.5669,2.5654,2.5662,2.5659,2.5673,2.5678,2.5649,2.5656,2.5652,2.567,2.5681,2.5688,2.5712,2.5696,2.5705,2.5692,2.5736,2.5693,2.57,2.5692,2.5691,2.5693,2.5745,2.5746,2.5747,2.5748,0,2.5754,2.5742,2.575,2.5755,2.5762,2.5765,2.5765,2.5774,2.5743,2.5753,2.5766,2.5771,2.5782,2.5793,2.5798,2.5793,2.5766,2.5762,2.577,2.5779,2.5786,2.5782,2.5648,2.5759,2.5758,2.5757,2.5757,2.5756,2.5837,2.5855,2.5847,2.5857,2.5854,2.5855,2.587,2.5856,2.5866,2.5872,2.5854,2.5871,2.5866,2.5869,2.5867,2.588,2.5861,2.5873,2.5876,2.588,2.5886,2.5784,2.5881,2.588,2.588,2.588,2.5879,0,2.5943,2.5935,2.5945,2.5946,2.5954,2.5927,2.5925,2.5934,2.5949,2.5946,2.5953,2.5968,2.5978,2.5963,2.5971,2.5985,2.5972,2.5988,2.5986,2.5986,2.5903,2.5894,2.5997,2.5997,2.5997,2.5997,2.5997,2.5997,2.5999,2.6028,2.6014,2.604,2.6033,2.6049,2.605,2.605,2.6047,2.6065,2.6073,2.6063,2.6055,2.6061,2.6069,2.6065,2.6069,2.6089,2.608,2.6003,2.5991,2.598,2.5972,2.609,2.609,2.6162,2.6162,2.6163]}]]